Location: Unspecified
(43.4354°N, 0.0000°E)
Time: 18:31:50
(UTC+00:00)

Vanguard 1 Rocket - Pass Details

Date: 19 June 2019
Orbit: 651 x 4225 km, 34.3° (Epoch: 18 July)

Event Time Altitude Azimuth Distance (km) Brightness Sun altitude
Rises 21:10:26 0° 265° (W) 5,362 11.9 -12.5°
Reaches altitude 10° 21:14:57 10° 258° (WSW) 3,782 10.9 -13.0°
Maximum altitude 21:22:43 36° 196° (SSW) 1,563 8.3 -13.9°
Enters shadow 21:25:52 21° 143° (SE) 1,846 8.3 -14.2°
